Wetterdaten: Freitag, 02.01.2015
Datum Zeit Temp. A. Feuchte A. Luftdruck Regen Wind Richtung Richtung Sonnenschein ET UV Solar Taupunkt Windchill Windben Empfang
02.01.2015 00:00 -5,2 C 79 % 1035,8 hPa 0,0 l/m 0,0 km/h (0 Bft) S 171 0 min 0,000 mm 0,0 UV-I 0 W/m -8,3 C -5,2 C 0,0 km/h (0 Bft) 0,00 %
02.01.2015 00:15 -5,1 C 79 % 1035,7 hPa 0,0 l/m 0,0 km/h (0 Bft) SW 219 0 min 0,000 mm 0,0 UV-I 0 W/m -8,2 C -5,1 C 0,0 km/h (0 Bft) 0,00 %
02.01.2015 00:30 -4,9 C 79 % 1035,3 hPa 0,0 l/m 0,0 km/h (0 Bft) NO 41 0 min 0,000 mm 0,0 UV-I 0 W/m -8,0 C -4,9 C 0,0 km/h (0 Bft) 0,00 %
02.01.2015 00:45 -4,7 C 80 % 1035,4 hPa 0,0 l/m 0,0 km/h (0 Bft) S 191 0 min 0,000 mm 0,0 UV-I 0 W/m -7,6 C -4,7 C 0,0 km/h (0 Bft) 0,00 %
02.01.2015 01:00 -4,5 C 79 % 1035,5 hPa 0,0 l/m 0,0 km/h (0 Bft) W-SW 246 0 min 0,000 mm 0,0 UV-I 0 W/m -7,6 C -4,5 C 0,0 km/h (0 Bft) 0,00 %
02.01.2015 01:15 -4,3 C 79 % 1035,2 hPa 0,0 l/m 0,0 km/h (0 Bft) SW 229 0 min 0,000 mm 0,0 UV-I 0 W/m -7,4 C -4,3 C 0,0 km/h (0 Bft) 0,00 %
02.01.2015 01:30 -3,9 C 79 % 1035,1 hPa 0,0 l/m 0,0 km/h (0 Bft) N-NO 23 0 min 0,000 mm 0,0 UV-I 0 W/m -7,0 C -3,9 C 0,0 km/h (0 Bft) 0,00 %
02.01.2015 01:45 -3,7 C 79 % 1035,0 hPa 0,0 l/m 0,0 km/h (0 Bft) SW 228 0 min 0,000 mm 0,0 UV-I 0 W/m -6,8 C -3,7 C 0,0 km/h (0 Bft) 0,00 %
02.01.2015 02:00 -3,7 C 79 % 1035,0 hPa 0,0 l/m 0,0 km/h (0 Bft) S-SW 200 0 min 0,000 mm 0,0 UV-I 0 W/m -6,8 C -3,7 C 0,0 km/h (0 Bft) 0,00 %
02.01.2015 02:15 -3,6 C 79 % 1034,9 hPa 0,0 l/m 0,0 km/h (0 Bft) W-SW 240 0 min 0,000 mm 0,0 UV-I 0 W/m -6,7 C -3,6 C 0,0 km/h (0 Bft) 0,00 %
02.01.2015 02:30 -3,5 C 78 % 1034,7 hPa 0,0 l/m 0,0 km/h (0 Bft) SW 229 0 min 0,000 mm 0,0 UV-I 0 W/m -6,8 C -3,5 C 0,0 km/h (0 Bft) 0,00 %
02.01.2015 02:45 -3,4 C 78 % 1034,6 hPa 0,0 l/m 0,0 km/h (0 Bft) SW 220 0 min 0,000 mm 0,0 UV-I 0 W/m -6,7 C -3,4 C 0,0 km/h (0 Bft) 0,00 %
02.01.2015 03:00 -3,2 C 78 % 1034,5 hPa 0,0 l/m 0,0 km/h (0 Bft) S-SW 204 0 min 0,000 mm 0,0 UV-I 0 W/m -6,5 C -3,2 C 0,0 km/h (0 Bft) 0,00 %
02.01.2015 03:15 -3,1 C 79 % 1034,4 hPa 0,0 l/m 0,0 km/h (0 Bft) S-SW 201 0 min 0,000 mm 0,0 UV-I 0 W/m -6,2 C -3,1 C 0,0 km/h (0 Bft) 0,00 %
02.01.2015 03:30 -3,0 C 79 % 1034,3 hPa 0,0 l/m 0,0 km/h (0 Bft) S 187 0 min 0,000 mm 0,0 UV-I 0 W/m -6,1 C -3,0 C 0,0 km/h (0 Bft) 0,00 %
02.01.2015 03:45 -3,1 C 79 % 1034,4 hPa 0,0 l/m 0,0 km/h (0 Bft) S-SW 209 0 min 0,000 mm 0,0 UV-I 0 W/m -6,2 C -3,1 C 0,0 km/h (0 Bft) 0,00 %
02.01.2015 04:00 -3,0 C 79 % 1034,0 hPa 0,0 l/m 0,0 km/h (0 Bft) SW 232 0 min 0,000 mm 0,0 UV-I 0 W/m -6,1 C -3,0 C 0,0 km/h (0 Bft) 0,00 %
02.01.2015 04:15 -3,0 C 79 % 1033,7 hPa 0,0 l/m 0,0 km/h (0 Bft) SW 223 0 min 0,000 mm 0,0 UV-I 0 W/m -6,1 C -3,0 C 0,0 km/h (0 Bft) 0,00 %
02.01.2015 04:30 -3,1 C 79 % 1033,8 hPa 0,0 l/m 0,0 km/h (0 Bft) SW 228 0 min 0,000 mm 0,0 UV-I 0 W/m -6,2 C -3,1 C 0,0 km/h (0 Bft) 0,00 %
02.01.2015 04:45 -3,3 C 78 % 1033,6 hPa 0,0 l/m 0,0 km/h (0 Bft) S-SW 199 0 min 0,000 mm 0,0 UV-I 0 W/m -6,6 C -3,3 C 0,0 km/h (0 Bft) 0,00 %
02.01.2015 05:00 -3,5 C 79 % 1033,5 hPa 0,0 l/m 0,0 km/h (0 Bft) S-SW 198 0 min 0,000 mm 0,0 UV-I 0 W/m -6,6 C -3,5 C 0,0 km/h (0 Bft) 0,00 %
02.01.2015 05:15 -3,7 C 79 % 1033,1 hPa 0,0 l/m 0,0 km/h (0 Bft) W-SW 252 0 min 0,000 mm 0,0 UV-I 0 W/m -6,8 C -3,7 C 0,0 km/h (0 Bft) 0,00 %
02.01.2015 05:30 -3,9 C 79 % 1033,1 hPa 0,0 l/m 0,0 km/h (0 Bft) S-SW 201 0 min 0,000 mm 0,0 UV-I 0 W/m -7,0 C -3,9 C 0,0 km/h (0 Bft) 0,00 %
02.01.2015 05:45 -4,0 C 79 % 1032,8 hPa 0,0 l/m 0,0 km/h (0 Bft) SW 230 0 min 0,000 mm 0,0 UV-I 0 W/m -7,1 C -4,0 C 0,0 km/h (0 Bft) 0,00 %
02.01.2015 06:00 -3,9 C 79 % 1033,1 hPa 0,0 l/m 0,0 km/h (0 Bft) SW 218 0 min 0,000 mm 0,0 UV-I 0 W/m -7,0 C -3,9 C 0,0 km/h (0 Bft) 0,00 %
02.01.2015 06:15 -3,8 C 79 % 1033,3 hPa 0,0 l/m 0,0 km/h (0 Bft) SW 226 0 min 0,000 mm 0,0 UV-I 0 W/m -6,9 C -3,8 C 0,0 km/h (0 Bft) 0,00 %
02.01.2015 06:30 -3,6 C 79 % 1033,6 hPa 0,0 l/m 0,0 km/h (0 Bft) W-SW 256 0 min 0,000 mm 0,0 UV-I 0 W/m -6,7 C -3,6 C 0,0 km/h (0 Bft) 0,00 %
02.01.2015 06:45 -3,6 C 79 % 1033,3 hPa 0,0 l/m 0,0 km/h (0 Bft) SW 234 0 min 0,000 mm 0,0 UV-I 0 W/m -6,7 C -3,6 C 0,0 km/h (0 Bft) 0,00 %
02.01.2015 07:00 -3,6 C 79 % 1033,4 hPa 0,0 l/m 0,0 km/h (0 Bft) S-SW 205 0 min 0,000 mm 0,0 UV-I 0 W/m -6,7 C -3,6 C 0,0 km/h (0 Bft) 0,00 %
02.01.2015 07:15 -3,6 C 79 % 1033,4 hPa 0,0 l/m 0,0 km/h (0 Bft) W-SW 253 0 min 0,000 mm 0,0 UV-I 0 W/m -6,7 C -3,6 C 0,0 km/h (0 Bft) 0,00 %
02.01.2015 07:30 -3,7 C 79 % 1033,6 hPa 0,0 l/m 0,0 km/h (0 Bft) S 191 0 min 0,000 mm 0,0 UV-I 0 W/m -6,8 C -3,7 C 0,0 km/h (0 Bft) 0,00 %
02.01.2015 07:45 -3,8 C 79 % 1033,8 hPa 0,0 l/m 0,0 km/h (0 Bft) S-SW 202 0 min 0,000 mm 0,0 UV-I 0 W/m -6,9 C -3,8 C 0,0 km/h (0 Bft) 0,00 %
02.01.2015 08:00 -4,1 C 79 % 1033,9 hPa 0,0 l/m 0,0 km/h (0 Bft) S 191 0 min 0,000 mm 0,0 UV-I 0 W/m -7,2 C -4,1 C 0,0 km/h (0 Bft) 0,00 %
02.01.2015 08:15 -4,0 C 79 % 1033,5 hPa 0,0 l/m 0,0 km/h (0 Bft) S-SW 193 0 min 0,000 mm 0,0 UV-I 4 W/m -7,1 C -4,0 C 0,0 km/h (0 Bft) 0,00 %
02.01.2015 08:30 -4,0 C 79 % 1033,5 hPa 0,0 l/m 0,0 km/h (0 Bft) SW 226 0 min 0,000 mm 0,0 UV-I 20 W/m -7,1 C -4,0 C 0,0 km/h (0 Bft) 0,00 %
02.01.2015 08:45 -3,7 C 79 % 1033,5 hPa 0,0 l/m 0,0 km/h (0 Bft) W-SW 252 0 min 0,000 mm 1,0 UV-I 39 W/m -6,8 C -3,7 C 0,0 km/h (0 Bft) 0,00 %
02.01.2015 09:00 -3,4 C 78 % 1033,3 hPa 0,0 l/m 0,0 km/h (0 Bft) SW 220 0 min 0,000 mm 1,0 UV-I 65 W/m -6,7 C -3,4 C 0,0 km/h (0 Bft) 0,00 %
02.01.2015 09:15 -3,3 C 78 % 1032,9 hPa 0,0 l/m 0,0 km/h (0 Bft) S 173 0 min 0,000 mm 1,0 UV-I 73 W/m -6,6 C -3,3 C 0,0 km/h (0 Bft) 0,00 %
02.01.2015 09:30 -3,3 C 78 % 1033,0 hPa 0,0 l/m 0,0 km/h (0 Bft) S-SW 209 0 min 0,000 mm 1,0 UV-I 86 W/m -6,6 C -3,3 C 0,0 km/h (0 Bft) 0,00 %
02.01.2015 09:45 -3,3 C 78 % 1033,5 hPa 0,0 l/m 0,0 km/h (0 Bft) SW 233 0 min 0,000 mm 1,0 UV-I 99 W/m -6,6 C -3,3 C 0,0 km/h (0 Bft) 0,00 %
02.01.2015 10:00 -2,9 C 78 % 1033,2 hPa 0,0 l/m 0,0 km/h (0 Bft) SW 226 0 min 0,000 mm 1,0 UV-I 123 W/m -6,2 C -2,9 C 0,0 km/h (0 Bft) 0,00 %
02.01.2015 10:15 -2,2 C 82 % 1033,2 hPa 0,0 l/m 0,0 km/h (0 Bft) SW 215 15 min 0,000 mm 1,0 UV-I 143 W/m -4,8 C -2,2 C 0,0 km/h (0 Bft) 0,00 %
02.01.2015 10:30 -0,9 C 81 % 1032,7 hPa 0,0 l/m 0,0 km/h (0 Bft) S-SW 198 15 min 0,000 mm 2,0 UV-I 228 W/m -3,7 C -0,9 C 0,0 km/h (0 Bft) 0,00 %
02.01.2015 10:45 -0,9 C 81 % 1032,5 hPa 0,0 l/m 0,0 km/h (0 Bft) W-SW 256 15 min 0,000 mm 2,0 UV-I 216 W/m -3,7 C -0,9 C 0,0 km/h (0 Bft) 0,00 %
02.01.2015 11:00 -1,6 C 80 % 1032,3 hPa 0,0 l/m 0,0 km/h (0 Bft) SW 225 15 min 0,000 mm 1,0 UV-I 208 W/m -4,6 C -1,6 C 0,0 km/h (0 Bft) 0,00 %
02.01.2015 11:15 -1,8 C 80 % 1032,4 hPa 0,0 l/m 0,0 km/h (0 Bft) S-SW 207 15 min 0,000 mm 1,0 UV-I 230 W/m -4,8 C -1,8 C 0,0 km/h (0 Bft) 0,00 %
02.01.2015 11:30 -1,5 C 77 % 1032,4 hPa 0,0 l/m 0,0 km/h (0 Bft) W-SW 255 15 min 0,000 mm 1,0 UV-I 234 W/m -5,0 C -1,5 C 0,0 km/h (0 Bft) 0,00 %
02.01.2015 11:45 -1,2 C 76 % 1032,0 hPa 0,0 l/m 0,0 km/h (0 Bft) S-SW 206 15 min 0,000 mm 1,0 UV-I 222 W/m -4,9 C -1,2 C 0,0 km/h (0 Bft) 0,00 %
02.01.2015 12:00 -1,3 C 76 % 1031,6 hPa 0,0 l/m 0,0 km/h (0 Bft) S 179 15 min 0,000 mm 1,0 UV-I 222 W/m -5,0 C -1,3 C 0,0 km/h (0 Bft) 0,00 %
02.01.2015 12:15 -1,0 C 75 % 1031,1 hPa 0,0 l/m 0,0 km/h (0 Bft) S 184 0 min 0,000 mm 2,0 UV-I 164 W/m -4,9 C -1,0 C 0,0 km/h (0 Bft) 0,00 %
02.01.2015 12:30 -0,5 C 73 % 1030,9 hPa 0,0 l/m 0,0 km/h (0 Bft) W-SW 241 15 min 0,000 mm 1,0 UV-I 186 W/m -4,7 C -0,5 C 0,0 km/h (0 Bft) 0,00 %
02.01.2015 12:45 -0,5 C 72 % 1030,6 hPa 0,0 l/m 0,0 km/h (0 Bft) W-SW 255 0 min 0,000 mm 2,0 UV-I 166 W/m -4,9 C -0,5 C 0,0 km/h (0 Bft) 0,00 %
02.01.2015 13:00 -0,2 C 72 % 1030,2 hPa 0,0 l/m 0,0 km/h (0 Bft) SW 231 15 min 0,000 mm 1,0 UV-I 240 W/m -4,6 C -0,2 C 0,0 km/h (0 Bft) 0,00 %
02.01.2015 13:15 0,0 C 73 % 1030,4 hPa 0,0 l/m 0,0 km/h (0 Bft) SW 228 0 min 0,000 mm 1,0 UV-I 161 W/m -4,2 C 0,0 C 0,0 km/h (0 Bft) 0,00 %
02.01.2015 13:30 0,5 C 71 % 1030,4 hPa 0,0 l/m 0,0 km/h (0 Bft) SW 220 15 min 0,000 mm 1,0 UV-I 182 W/m -4,1 C 0,5 C 0,0 km/h (0 Bft) 0,00 %
02.01.2015 13:45 0,2 C 72 % 1030,3 hPa 0,0 l/m 0,0 km/h (0 Bft) W-SW 250 0 min 0,000 mm 1,0 UV-I 143 W/m -4,2 C 0,2 C 0,0 km/h (0 Bft) 0,00 %
02.01.2015 14:00 0,2 C 72 % 1030,6 hPa 0,0 l/m 0,0 km/h (0 Bft) SW 231 0 min 0,000 mm 1,0 UV-I 106 W/m -4,2 C 0,2 C 0,0 km/h (0 Bft) 0,00 %
02.01.2015 14:15 -0,1 C 73 % 1030,4 hPa 0,0 l/m 0,0 km/h (0 Bft) W-SW 247 0 min 0,000 mm 1,0 UV-I 89 W/m -4,3 C -0,1 C 0,0 km/h (0 Bft) 0,00 %
02.01.2015 14:30 0,1 C 73 % 1030,4 hPa 0,0 l/m 0,0 km/h (0 Bft) SW 214 0 min 0,000 mm 1,0 UV-I 66 W/m -4,2 C 0,1 C 0,0 km/h (0 Bft) 0,00 %
02.01.2015 14:45 -0,1 C 74 % 1030,4 hPa 0,0 l/m 0,0 km/h (0 Bft) SW 234 0 min 0,000 mm 1,0 UV-I 86 W/m -4,2 C -0,1 C 0,0 km/h (0 Bft) 0,00 %
02.01.2015 15:00 -0,1 C 75 % 1030,4 hPa 0,0 l/m 0,0 km/h (0 Bft) SW 227 0 min 0,000 mm 0,0 UV-I 61 W/m -4,0 C -0,1 C 0,0 km/h (0 Bft) 0,00 %
02.01.2015 15:15 -0,3 C 76 % 1030,4 hPa 0,0 l/m 0,0 km/h (0 Bft) W-SW 256 0 min 0,000 mm 0,0 UV-I 44 W/m -4,0 C -0,3 C 0,0 km/h (0 Bft) 0,00 %
02.01.2015 15:30 -0,3 C 78 % 1030,2 hPa 0,0 l/m 0,0 km/h (0 Bft) SW 233 0 min 0,000 mm 0,0 UV-I 21 W/m -3,7 C -0,3 C 0,0 km/h (0 Bft) 0,00 %
02.01.2015 15:45 -0,3 C 80 % 1030,3 hPa 0,0 l/m 0,0 km/h (0 Bft) W-SW 256 0 min 0,000 mm 0,0 UV-I 17 W/m -3,3 C -0,3 C 0,0 km/h (0 Bft) 0,00 %
02.01.2015 16:00 -0,2 C 80 % 1030,4 hPa 0,0 l/m 0,0 km/h (0 Bft) W-SW 254 0 min 0,000 mm 0,0 UV-I 3 W/m -3,2 C -0,2 C 0,0 km/h (0 Bft) 0,00 %
02.01.2015 16:15 -0,1 C 81 % 1030,6 hPa 0,0 l/m 0,0 km/h (0 Bft) W-SW 251 0 min 0,000 mm 0,0 UV-I 0 W/m -3,0 C -0,1 C 0,0 km/h (0 Bft) 0,00 %
02.01.2015 16:30 0,0 C 81 % 1030,7 hPa 0,0 l/m 0,0 km/h (0 Bft) W-SW 255 0 min 0,000 mm 0,0 UV-I 0 W/m -2,9 C 0,0 C 0,0 km/h (0 Bft) 0,00 %
02.01.2015 16:45 0,5 C 80 % 1030,7 hPa 0,0 l/m 0,0 km/h (0 Bft) S 172 0 min 0,000 mm 0,0 UV-I 0 W/m -2,5 C 0,5 C 0,0 km/h (0 Bft) 0,00 %
02.01.2015 17:00 0,6 C 80 % 1030,8 hPa 0,0 l/m 0,0 km/h (0 Bft) S 177 0 min 0,000 mm 0,0 UV-I 0 W/m -2,4 C 0,6 C 0,0 km/h (0 Bft) 0,00 %
02.01.2015 17:15 1,0 C 81 % 1030,4 hPa 0,0 l/m 0,0 km/h (0 Bft) W-NW 294 0 min 0,000 mm 0,0 UV-I 0 W/m -1,9 C 1,0 C 0,0 km/h (0 Bft) 0,00 %
02.01.2015 17:30 1,4 C 80 % 1030,4 hPa 0,0 l/m 0,0 km/h (0 Bft) W-SW 250 0 min 0,000 mm 0,0 UV-I 0 W/m -1,7 C 1,4 C 0,0 km/h (0 Bft) 0,00 %
02.01.2015 17:45 1,6 C 80 % 1030,7 hPa 0,0 l/m 0,0 km/h (0 Bft) W-SW 252 0 min 0,000 mm 0,0 UV-I 0 W/m -1,5 C 1,6 C 0,0 km/h (0 Bft) 0,00 %
02.01.2015 18:00 1,7 C 80 % 1030,1 hPa 0,0 l/m 0,0 km/h (0 Bft) S-SW 207 0 min 0,000 mm 0,0 UV-I 0 W/m -1,4 C 1,7 C 0,0 km/h (0 Bft) 0,00 %
02.01.2015 18:15 2,1 C 80 % 1030,1 hPa 0,0 l/m 0,0 km/h (0 Bft) W-SW 256 0 min 0,000 mm 0,0 UV-I 0 W/m -1,0 C 2,1 C 0,0 km/h (0 Bft) 0,00 %
02.01.2015 18:30 2,3 C 80 % 1030,6 hPa 0,0 l/m 4,3 km/h (1 Bft) W 270 0 min 0,000 mm 0,0 UV-I 0 W/m -0,8 C 2,3 C 7,9 km/h (2 Bft) 0,00 %
02.01.2015 18:45 2,3 C 80 % 1030,6 hPa 0,0 l/m 0,0 km/h (0 Bft) W 264 0 min 0,000 mm 0,0 UV-I 0 W/m -0,8 C 2,3 C 0,0 km/h (0 Bft) 0,00 %
02.01.2015 19:00 2,1 C 80 % 1031,1 hPa 0,0 l/m 0,4 km/h (0 Bft) SW 225 0 min 0,000 mm 0,0 UV-I 0 W/m -1,0 C 2,1 C 4,0 km/h (1 Bft) 0,00 %
02.01.2015 19:15 2,0 C 81 % 1031,2 hPa 0,0 l/m 0,0 km/h (0 Bft) S 191 0 min 0,000 mm 0,0 UV-I 0 W/m -0,9 C 2,0 C 0,0 km/h (0 Bft) 0,00 %
02.01.2015 19:30 2,2 C 86 % 1031,4 hPa 0,0 l/m 9,7 km/h (2 Bft) W-SW 250 0 min 0,000 mm 0,0 UV-I 0 W/m 0,1 C -0,8 C 11,9 km/h (2 Bft) 0,00 %
02.01.2015 19:45 2,7 C 86 % 1031,6 hPa 0,0 l/m 0,0 km/h (0 Bft) SW 235 0 min 0,000 mm 0,0 UV-I 0 W/m 0,6 C 2,7 C 0,0 km/h (0 Bft) 0,00 %
02.01.2015 20:00 2,8 C 86 % 1031,6 hPa 0,0 l/m 1,4 km/h (1 Bft) W-SW 255 0 min 0,000 mm 0,0 UV-I 0 W/m 0,7 C 2,8 C 4,0 km/h (1 Bft) 0,00 %
02.01.2015 20:15 2,7 C 86 % 1031,6 hPa 0,0 l/m 0,0 km/h (0 Bft) SW 229 0 min 0,000 mm 0,0 UV-I 0 W/m 0,6 C 2,7 C 0,0 km/h (0 Bft) 0,00 %
02.01.2015 20:30 2,6 C 86 % 1031,6 hPa 0,0 l/m 0,4 km/h (0 Bft) W-SW 243 0 min 0,000 mm 0,0 UV-I 0 W/m 0,5 C 2,6 C 4,0 km/h (1 Bft) 0,00 %
02.01.2015 20:45 2,7 C 86 % 1032,0 hPa 0,0 l/m 0,0 km/h (0 Bft) W-SW 251 0 min 0,000 mm 0,0 UV-I 0 W/m 0,6 C 2,7 C 0,0 km/h (0 Bft) 0,00 %
02.01.2015 21:00 2,7 C 86 % 1032,4 hPa 0,0 l/m 1,4 km/h (1 Bft) W-SW 251 0 min 0,000 mm 0,0 UV-I 0 W/m 0,6 C 2,7 C 4,0 km/h (1 Bft) 0,00 %
02.01.2015 21:15 2,7 C 86 % 1032,9 hPa 0,0 l/m 8,3 km/h (2 Bft) W-SW 255 0 min 0,000 mm 0,0 UV-I 0 W/m 0,6 C 0,9 C 11,9 km/h (2 Bft) 0,00 %
02.01.2015 21:30 2,7 C 86 % 1032,8 hPa 0,0 l/m 6,5 km/h (2 Bft) W-SW 254 0 min 0,000 mm 0,0 UV-I 0 W/m 0,6 C 2,6 C 11,9 km/h (2 Bft) 0,00 %
02.01.2015 21:45 2,6 C 86 % 1032,7 hPa 0,0 l/m 5,4 km/h (1 Bft) O-SO 123 0 min 0,000 mm 0,0 UV-I 0 W/m 0,5 C 2,6 C 11,9 km/h (2 Bft) 0,00 %
02.01.2015 22:00 2,6 C 85 % 1032,8 hPa 0,0 l/m 3,2 km/h (1 Bft) W 270 0 min 0,000 mm 0,0 UV-I 0 W/m 0,3 C 2,6 C 7,9 km/h (2 Bft) 0,00 %
02.01.2015 22:15 2,7 C 85 % 1033,2 hPa 0,0 l/m 4,3 km/h (1 Bft) W-SW 256 0 min 0,000 mm 0,0 UV-I 0 W/m 0,4 C 2,7 C 7,9 km/h (2 Bft) 0,00 %
02.01.2015 22:30 2,6 C 85 % 1033,4 hPa 0,0 l/m 4,0 km/h (1 Bft) N-NW 340 0 min 0,000 mm 0,0 UV-I 0 W/m 0,3 C 2,6 C 7,9 km/h (2 Bft) 0,00 %
02.01.2015 22:45 2,5 C 85 % 1033,3 hPa 0,0 l/m 2,2 km/h (1 Bft) W-SW 255 0 min 0,000 mm 0,0 UV-I 0 W/m 0,2 C 2,5 C 4,0 km/h (1 Bft) 0,00 %
02.01.2015 23:00 2,5 C 84 % 1033,6 hPa 0,0 l/m 0,4 km/h (0 Bft) W-SW 255 0 min 0,000 mm 0,0 UV-I 0 W/m 0,1 C 2,5 C 4,0 km/h (1 Bft) 0,00 %
02.01.2015 23:15 2,6 C 83 % 1033,2 hPa 0,0 l/m 5,8 km/h (2 Bft) W-SW 252 0 min 0,000 mm 0,0 UV-I 0 W/m 0,0 C 2,6 C 11,9 km/h (2 Bft) 0,00 %
02.01.2015 23:30 2,5 C 83 % 1033,4 hPa 0,0 l/m 0,4 km/h (0 Bft) N 356 0 min 0,000 mm 0,0 UV-I 0 W/m -0,1 C 2,5 C 4,0 km/h (1 Bft) 0,00 %
_ Min-Zeit 00:00 13:30 18:00 - 00:00 - - - - - - 00:00 00:00 00:00 00:00
Minimum _ -5,2 C 71 % 1030,1 hPa - 0,0 km/h (0 Bft) - - - - - - -8,3 C -5,2 C 0,0 km/h (0 Bft) 0,00 %
_ Max-Zeit 20:00 19:30 00:00 00:00 19:30 - - 10:15 00:00 10:30 13:00 20:00 20:00 19:30 00:00
Maximum _ 2,8 C 86 % 1035,8 hPa 0,0 l/m 9,7 km/h
W-SW (2 Bft)
- - 15 min 0,000 mm 2,0 UV-I 240 W/m 0,7 C 2,8 C 11,9 km/h
W-SW (2 Bft)
0,00 %
Durchschnitt _ -1,1 C 79 % 1032,5 hPa #0,0 l/m 0,6 km/h (0 Bft) W-SW - #2:45 h #0,000 mm 1,2 UV-I 123 W/m -4,2 C -1,1 C 1,3 km/h (1 Bft) 0,00 %